TimeCST,TemperatureF,Dew PointF,Humidity,Sea Level PressureIn,VisibilityMPH,Wind Direction,Wind SpeedMPH,Gust SpeedMPH,PrecipitationIn,Events,Conditions,WindDirDegrees,DateUTC
12:54 AM,26.1,24.1,92,30.23,3.0,WSW,4.6,-,N/A,,Clear,250,2013-11-08 06:54:00
1:54 AM,25.0,23.0,92,30.23,2.5,SW,3.5,-,N/A,,Clear,220,2013-11-08 07:54:00
2:54 AM,23.0,21.0,92,30.23,2.0,SW,3.5,-,N/A,,Partly Cloudy,230,2013-11-08 08:54:00
2:57 AM,23.0,21.2,93,30.18,1.0,SW,3.5,-,N/A,,Mist,230,2013-11-08 08:57:00
3:04 AM,21.2,21.2,100,30.18,0.2,SW,4.6,-,N/A,Fog,Light Freezing Fog,220,2013-11-08 09:04:00
3:54 AM,24.1,21.9,91,30.25,0.2,Calm,Calm,-,N/A,Fog,Light Freezing Fog,0,2013-11-08 09:54:00
4:54 AM,25.0,23.0,92,30.25,0.2,Calm,Calm,-,N/A,Fog,Light Freezing Fog,0,2013-11-08 10:54:00
5:54 AM,25.0,24.1,96,30.25,0.2,Calm,Calm,-,N/A,Fog,Light Freezing Fog,0,2013-11-08 11:54:00
6:54 AM,24.1,21.9,91,30.25,0.2,Calm,Calm,-,N/A,Fog,Light Freezing Fog,0,2013-11-08 12:54:00
7:54 AM,25.0,23.0,92,30.26,0.2,SE,3.5,-,N/A,Fog,Light Freezing Fog,130,2013-11-08 13:54:00
8:54 AM,27.0,25.0,92,30.27,0.2,South,5.8,-,N/A,Fog,Light Freezing Fog,170,2013-11-08 14:54:00
9:54 AM,28.0,26.1,92,30.24,1.0,ESE,5.8,-,N/A,,Overcast,120,2013-11-08 15:54:00
10:01 AM,28.4,26.6,93,30.18,1.5,ESE,5.8,-,N/A,,Overcast,120,2013-11-08 16:01:00
10:23 AM,30.2,28.4,93,30.17,2.0,ESE,5.8,-,N/A,,Mostly Cloudy,120,2013-11-08 16:23:00
10:33 AM,30.2,28.4,93,30.17,3.0,SE,5.8,-,N/A,,Scattered Clouds,130,2013-11-08 16:33:00
10:42 AM,30.2,28.4,93,30.17,2.5,SE,4.6,-,N/A,,Partly Cloudy,130,2013-11-08 16:42:00
10:54 AM,30.9,28.9,92,30.22,3.0,SE,6.9,-,N/A,,Clear,130,2013-11-08 16:54:00
11:54 AM,32.0,28.9,88,30.17,6.0,SSE,8.1,-,N/A,,Clear,150,2013-11-08 17:54:00
12:54 PM,34.0,30.9,89,30.14,5.0,SSE,9.2,-,N/A,,Scattered Clouds,150,2013-11-08 18:54:00
1:54 PM,37.0,30.0,76,30.10,7.0,ESE,10.4,-,N/A,,Overcast,120,2013-11-08 19:54:00
2:54 PM,37.9,30.0,73,30.05,9.0,ESE,10.4,-,N/A,,Overcast,120,2013-11-08 20:54:00
3:54 PM,37.9,28.9,70,30.02,10.0,ESE,11.5,-,N/A,,Overcast,120,2013-11-08 21:54:00
4:54 PM,37.0,28.9,73,29.99,10.0,SE,12.7,-,N/A,,Clear,130,2013-11-08 22:54:00
5:54 PM,37.0,28.9,73,29.95,10.0,ESE,13.8,-,N/A,,Partly Cloudy,120,2013-11-08 23:54:00
6:54 PM,39.0,28.9,67,29.93,10.0,SE,17.3,24.2,N/A,,Overcast,140,2013-11-09 00:54:00
7:54 PM,39.0,28.9,67,29.90,10.0,SSE,12.7,-,N/A,,Overcast,150,2013-11-09 01:54:00
8:54 PM,39.0,30.0,70,29.87,10.0,SSE,13.8,21.9,0.00,Rain,Light Rain,160,2013-11-09 02:54:00
9:54 PM,37.9,33.1,83,29.81,8.0,SSE,13.8,20.7,0.01,Rain,Light Rain,160,2013-11-09 03:54:00
10:54 PM,37.9,34.0,86,29.75,6.0,SSE,15.0,25.3,0.05,Rain,Rain,150,2013-11-09 04:54:00
11:54 PM,39.0,35.1,86,29.73,10.0,South,9.2,-,0.01,Rain,Light Rain,170,2013-11-09 05:54:00